User: anonymous   Login
Location: Caltech
(34.1382°N, 118.1253°W)
Time: 22:03:24
(UTC-07:00)
Language:

Oscar 11 - Orbit

View from above orbital plane
View from above orbital plane
View from above satellite
View from above satellite

Ground track
Ground track

The orbit data is extracted from the following two-line orbital elements,

1 14781U 84021B   17235.50905246 +.00000129 +00000-0 +22115-4 0  9992
2 14781 097.6915 278.7219 0008072 349.5242 010.5803 14.82919527779325
Epoch (UTC): 23 August 2017 12:13:02
Eccentricity: 0.0008072
inclination: 97.6915°
perigee height: 614 km
apogee height: 626 km
right ascension of ascending node: 278.7219°
argument of perigee: 349.5242°
revolutions per day: 14.82919527
mean anomaly at epoch: 10.5803°
orbit number at epoch: 77932

The dashed part of the orbit path shows where the satellite is in the earth's shadow,  

DLR